| time (UTC) | temp F | wind direction | speed MPH | gust MPH | rain 1hr in | rain 24hr in | rain mn in | humidity % | barometer mb |
| 20260502234210 | 58 | 101 | 2.0 | 3.0 | 0.00 | 0.00 | 0.00 | 82 | 1015.2 |
| 20260502233716 | 58 | 15 | 0.0 | 4.0 | 0.00 | 0.00 | 0.00 | 82 | 1015.2 |
| 20260502233210 | 58 | 101 | 1.0 | 6.0 | 0.00 | 0.00 | 0.00 | 81 | 1015.2 |
| 20260502232711 | 58 | 101 | 2.0 | 6.0 | 0.00 | 0.00 | 0.00 | 81 | 1015.3 |
| 20260502232212 | 58 | 28 | 2.0 | 6.0 | 0.00 | 0.00 | 0.00 | 81 | 1015.3 |
| 20260502231717 | 58 | 36 | 2.0 | 6.0 | 0.00 | 0.00 | 0.00 | 81 | 1015.5 |
| 20260502230736 | 59 | 59 | 3.0 | 5.0 | 0.00 | 0.00 | 0.00 | 81 | 1015.4 |
| 20260502230232 | 59 | 56 | 2.0 | 7.0 | 0.00 | 0.00 | 0.00 | 81 | 1015.3 |
| 20260502225706 | 59 | 37 | 2.0 | 7.0 | 0.00 | 0.00 | 0.00 | 81 | 1015.3 |
| 20260502225214 | 59 | 11 | 4.0 | 3.0 | 0.00 | 0.00 | 0.00 | 81 | 1015.3 |
| 20260502224709 | 59 | 106 | 1.0 | 4.0 | 0.00 | 0.00 | 0.00 | 81 | 1015.4 |
| 20260502224212 | 59 | 77 | 1.0 | 5.0 | 0.00 | 0.00 | 0.00 | 81 | 1015.4 |
| 20260502223718 | 59 | 77 | 1.0 | 7.0 | 0.00 | 0.00 | 0.00 | 79 | 1015.5 |
| 20260502223210 | 59 | 71 | 2.0 | 7.0 | 0.00 | 0.00 | 0.00 | 79 | 1015.4 |
| 20260502222714 | 59 | 30 | 4.0 | 7.0 | 0.00 | 0.00 | 0.00 | 79 | 1015.6 |
| 20260502222205 | 59 | 66 | 3.0 | 9.0 | 0.00 | 0.00 | 0.00 | 79 | 1015.5 |
| 20260502221211 | 60 | 54 | 4.0 | 11.0 | 0.00 | 0.00 | 0.00 | 78 | 1015.8 |
| 20260502220215 | 60 | 358 | 5.0 | 12.0 | 0.00 | 0.00 | 0.00 | 77 | 1015.7 |
| 20260502215707 | 60 | 23 | 7.0 | 11.0 | 0.00 | 0.00 | 0.00 | 77 | 1015.7 |
| 20260502215208 | 60 | 39 | 4.0 | 11.0 | 0.00 | 0.00 | 0.00 | 76 | 1015.6 |
| 20260502214706 | 60 | 18 | 6.0 | 10.0 | 0.00 | 0.00 | 0.00 | 75 | 1015.7 |
| 20260502214215 | 60 | 32 | 6.0 | 11.0 | 0.00 | 0.00 | 0.00 | 74 | 1015.8 |
| 20260502213708 | 60 | 35 | 5.0 | 11.0 | 0.00 | 0.00 | 0.00 | 74 | 1015.9 |
| 20260502213216 | 60 | 4 | 5.0 | 13.0 | 0.00 | 0.00 | 0.00 | 73 | 1016.0 |
| 20260502212206 | 60 | 0 | 8.0 | 13.0 | 0.00 | 0.00 | 0.00 | 71 | 1016.0 |
| 20260502211213 | 61 | 0 | 7.0 | 12.0 | 0.00 | 0.00 | 0.00 | 70 | 1016.0 |
| 20260502210705 | 61 | 9 | 7.0 | 12.0 | 0.00 | 0.00 | 0.00 | 69 | 1015.7 |
| 20260502210218 | 61 | 32 | 6.0 | 10.0 | 0.00 | 0.00 | 0.00 | 69 | 1015.8 |
| 20260502205716 | 61 | 37 | 6.0 | 13.0 | 0.00 | 0.00 | 0.00 | 69 | 1015.9 |
| 20260502205216 | 61 | 26 | 5.0 | 15.0 | 0.00 | 0.00 | 0.00 | 69 | 1015.9 |
| 20260502204715 | 61 | 16 | 7.0 | 15.0 | 0.00 | 0.00 | 0.00 | 69 | 1015.8 |
| 20260502204208 | 61 | 7 | 9.0 | 15.0 | 0.00 | 0.00 | 0.00 | 69 | 1015.7 |
| 20260502203716 | 61 | 43 | 7.0 | 12.0 | 0.00 | 0.00 | 0.00 | 69 | 1015.8 |
| 20260502202709 | 61 | 7 | 7.0 | 14.0 | 0.00 | 0.00 | 0.00 | 69 | 1015.7 |
| 20260502201713 | 62 | 23 | 8.0 | 15.0 | 0.00 | 0.00 | 0.00 | 69 | 1015.7 |
| 20260502200706 | 62 | 43 | 8.0 | 15.0 | 0.00 | 0.00 | 0.00 | 71 | 1015.4 |
| 20260502200209 | 62 | 74 | 8.0 | 14.0 | 0.00 | 0.00 | 0.00 | 71 | 1015.6 |
| 20260502195217 | 62 | 35 | 6.0 | 17.0 | 0.00 | 0.00 | 0.00 | 73 | 1015.7 |
| 20260502194708 | 62 | 8 | 10.0 | 17.0 | 0.00 | 0.00 | 0.00 | 73 | 1015.8 |
| 20260502194207 | 62 | 21 | 9.0 | 15.0 | 0.00 | 0.00 | 0.00 | 74 | 1015.7 |
| 20260502193709 | 62 | 2 | 10.0 | 13.0 | 0.00 | 0.00 | 0.00 | 74 | 1015.7 |
| 20260502193207 | 62 | 11 | 8.0 | 13.0 | 0.00 | 0.00 | 0.00 | 73 | 1015.7 |
| 20260502192710 | 62 | 1 | 8.0 | 14.0 | 0.00 | 0.00 | 0.00 | 73 | 1015.9 |
| 20260502192213 | 62 | 25 | 8.0 | 17.0 | 0.00 | 0.00 | 0.00 | 72 | 1015.9 |
| 20260502191715 | 62 | 21 | 8.0 | 18.0 | 0.00 | 0.00 | 0.00 | 72 | 1015.9 |
| 20260502191209 | 62 | 355 | 10.0 | 18.0 | 0.00 | 0.00 | 0.00 | 72 | 1015.8 |
| 20260502190719 | 62 | 7 | 9.0 | 15.0 | 0.00 | 0.00 | 0.00 | 72 | 1015.9 |
| 20260502190219 | 62 | 15 | 9.0 | 16.0 | 0.00 | 0.00 | 0.00 | 71 | 1015.9 |
| 20260502185706 | 63 | 26 | 9.0 | 16.0 | 0.00 | 0.00 | 0.00 | 70 | 1015.7 |
| 20260502184213 | 63 | 35 | 9.0 | 13.0 | 0.00 | 0.00 | 0.00 | 68 | 1015.5 |
| 20260502183219 | 64 | 11 | 9.0 | 15.0 | 0.00 | 0.00 | 0.00 | 65 | 1015.6 |
| 20260502182206 | 65 | 50 | 7.0 | 15.0 | 0.00 | 0.00 | 0.00 | 64 | 1015.6 |
| 20260502181717 | 65 | 46 | 7.0 | 15.0 | 0.00 | 0.00 | 0.00 | 64 | 1015.6 |
| 20260502181215 | 65 | 56 | 8.0 | 15.0 | 0.00 | 0.00 | 0.00 | 64 | 1015.6 |
| 20260502180712 | 65 | 39 | 8.0 | 15.0 | 0.00 | 0.00 | 0.00 | 64 | 1015.6 |
| 20260502180210 | 65 | 32 | 8.0 | 15.0 | 0.00 | 0.00 | 0.00 | 64 | 1015.8 |
| 20260502170212 | 67 | 46 | 10.0 | 23.0 | 0.00 | 0.00 | 0.00 | 63 | 1015.9 |
| 20260502164212 | 67 | 46 | 10.0 | 18.0 | 0.00 | 0.00 | 0.00 | 63 | 1016.1 |
| 20260502163715 | 68 | 54 | 10.0 | 20.0 | 0.00 | 0.00 | 0.00 | 64 | 1016.1 |
| 20260502163215 | 68 | 57 | 11.0 | 22.0 | 0.00 | 0.00 | 0.00 | 63 | 1016.2 |
| 20260502162714 | 68 | 36 | 11.0 | 22.0 | 0.00 | 0.00 | 0.00 | 64 | 1016.1 |
| 20260502162207 | 68 | 40 | 9.0 | 22.0 | 0.00 | 0.00 | 0.00 | 63 | 1016.2 |
| 20260502161719 | 68 | 29 | 10.0 | 19.0 | 0.00 | 0.00 | 0.00 | 63 | 1016.2 |
| 20260502160713 | 69 | 47 | 11.0 | 18.0 | 0.00 | 0.00 | 0.00 | 63 | 1016.3 |
| 20260502160218 | 69 | 54 | 8.0 | 16.0 | 0.00 | 0.00 | 0.00 | 62 | 1016.4 |
| 20260502152219 | 70 | 52 | 12.0 | 21.0 | 0.00 | 0.00 | 0.00 | 62 | 1016.6 |
| 20260502151722 | 70 | 46 | 11.0 | 21.0 | 0.00 | 0.00 | 0.00 | 62 | 1016.6 |
| 20260502150719 | 70 | 46 | 9.0 | 19.0 | 0.00 | 0.00 | 0.00 | 63 | 1016.7 |
| 20260502130709 | 70 | 25 | 11.0 | 22.0 | 0.00 | 0.00 | 0.00 | 59 | 1018.7 |
| 20260502130207 | 70 | 32 | 13.0 | 21.0 | 0.00 | 0.00 | 0.00 | 59 | 1018.7 |
| 20260502123209 | 71 | 61 | 13.0 | 26.0 | 0.00 | 0.00 | 0.00 | 59 | 1019.0 |
| 20260502122713 | 71 | 30 | 12.0 | 25.0 | 0.00 | 0.00 | 0.00 | 59 | 1019.1 |
| 20260502121712 | 70 | 29 | 11.0 | 21.0 | 0.00 | 0.00 | 0.00 | 58 | 1019.1 |
| 20260502121214 | 70 | 77 | 9.0 | 20.0 | 0.00 | 0.00 | 0.00 | 58 | 1019.2 |
| 20260502120716 | 70 | 42 | 9.0 | 20.0 | 0.00 | 0.00 | 0.00 | 59 | 1019.1 |
| 20260502115710 | 70 | 59 | 9.0 | 23.0 | 0.00 | 0.00 | 0.00 | 58 | 1019.3 |
| 20260502115218 | 70 | 46 | 10.0 | 23.0 | 0.00 | 0.00 | 0.00 | 59 | 1019.2 |
| 20260502114715 | 70 | 90 | 7.0 | 19.0 | 0.00 | 0.00 | 0.00 | 58 | 1019.3 |
| 20260502114211 | 70 | 57 | 7.0 | 19.0 | 0.00 | 0.00 | 0.00 | 59 | 1019.4 |
| 20260502113719 | 70 | 63 | 9.0 | 17.0 | 0.00 | 0.00 | 0.00 | 58 | 1019.5 |
| 20260502113207 | 70 | 59 | 9.0 | 20.0 | 0.00 | 0.00 | 0.00 | 60 | 1019.3 |
| 20260502111712 | 69 | 14 | 9.0 | 21.0 | 0.00 | 0.00 | 0.00 | 60 | 1019.4 |
| 20260502110714 | 70 | 70 | 9.0 | 21.0 | 0.00 | 0.00 | 0.00 | 59 | 1019.5 |
| 20260502110214 | 70 | 59 | 10.0 | 20.0 | 0.00 | 0.00 | 0.00 | 58 | 1019.5 |
| 20260502105707 | 70 | 56 | 8.0 | 19.0 | 0.00 | 0.00 | 0.00 | 57 | 1019.5 |
| 20260502105210 | 71 | 71 | 8.0 | 19.0 | 0.00 | 0.00 | 0.00 | 55 | 1019.5 |
| 20260502104714 | 71 | 32 | 10.0 | 20.0 | 0.00 | 0.00 | 0.00 | 55 | 1019.5 |
| 20260502104207 | 71 | 99 | 9.0 | 20.0 | 0.00 | 0.00 | 0.00 | 56 | 1019.6 |
| 20260502103718 | 71 | 82 | 8.0 | 21.0 | 0.00 | 0.00 | 0.00 | 55 | 1019.6 |
| 20260502103207 | 71 | 64 | 10.0 | 21.0 | 0.00 | 0.00 | 0.00 | 57 | 1019.6 |
| 20260502102710 | 71 | 75 | 10.0 | 21.0 | 0.00 | 0.00 | 0.00 | 56 | 1019.6 |
| 20260502102212 | 71 | 108 | 6.0 | 28.0 | 0.00 | 0.00 | 0.00 | 56 | 1019.9 |
| 20260502101713 | 71 | 47 | 10.0 | 28.0 | 0.00 | 0.00 | 0.00 | 55 | 1020.0 |
| 20260502101210 | 71 | 39 | 13.0 | 19.0 | 0.00 | 0.00 | 0.00 | 56 | 1019.7 |
| 20260502100710 | 70 | 67 | 12.0 | 18.0 | 0.00 | 0.00 | 0.00 | 56 | 1020.1 |
| 20260502100219 | 70 | 68 | 9.0 | 19.0 | 0.00 | 0.00 | 0.00 | 56 | 1019.9 |
| 20260502091232 | 69 | 56 | 11.0 | 20.0 | 0.00 | 0.00 | 0.00 | 57 | 1020.3 |
| 20260502090719 | 69 | 98 | 11.0 | 18.0 | 0.00 | 0.00 | 0.00 | 57 | 1020.4 |
| 20260502090206 | 69 | 80 | 9.0 | 19.0 | 0.00 | 0.00 | 0.00 | 57 | 1020.3 |
| 20260502071213 | 65 | 53 | 7.0 | 13.0 | 0.00 | 0.00 | 0.00 | 73 | 1020.3 |
| 20260502070711 | 65 | 29 | 7.0 | 13.0 | 0.00 | 0.00 | 0.00 | 73 | 1020.3 |
| 20260502070218 | 64 | 25 | 7.0 | 13.0 | 0.00 | 0.00 | 0.00 | 74 | 1020.2 |
| 20260502065715 | 64 | 74 | 8.0 | 13.0 | 0.00 | 0.00 | 0.00 | 75 | 1020.2 |
| 20260502065212 | 63 | 12 | 7.0 | 16.0 | 0.00 | 0.00 | 0.00 | 76 | 1020.2 |
| 20260502064711 | 62 | 352 | 7.0 | 16.0 | 0.00 | 0.00 | 0.00 | 78 | 1020.1 |
| 20260502063717 | 61 | 7 | 7.0 | 15.0 | 0.00 | 0.00 | 0.00 | 78 | 1020.1 |
| 20260502063208 | 61 | 29 | 8.0 | 15.0 | 0.00 | 0.00 | 0.00 | 78 | 1020.1 |
| 20260502062707 | 60 | 19 | 9.0 | 15.0 | 0.00 | 0.00 | 0.00 | 79 | 1020.1 |
| 20260502062205 | 60 | 358 | 10.0 | 15.0 | 0.00 | 0.00 | 0.00 | 80 | 1020.0 |
| 20260502061712 | 60 | 12 | 9.0 | 13.0 | 0.00 | 0.00 | 0.00 | 79 | 1020.0 |
| 20260502061217 | 60 | 1 | 8.0 | 11.0 | 0.00 | 0.00 | 0.00 | 79 | 1020.1 |
| 20260502060705 | 61 | 16 | 6.0 | 11.0 | 0.00 | 0.00 | 0.00 | 79 | 1020.2 |
| 20260502060207 | 61 | 15 | 6.0 | 11.0 | 0.00 | 0.00 | 0.00 | 79 | 1020.1 |
| 20260502055730 | 62 | 68 | 6.0 | 11.0 | 0.00 | 0.00 | 0.00 | 79 | 1020.1 |
| 20260502055210 | 62 | 42 | 5.0 | 9.0 | 0.00 | 0.00 | 0.00 | 78 | 1020.1 |
| 20260502054706 | 62 | 50 | 5.0 | 10.0 | 0.00 | 0.00 | 0.00 | 78 | 1020.1 |
| 20260502054217 | 62 | 5 | 5.0 | 11.0 | 0.00 | 0.00 | 0.00 | 78 | 1020.1 |
| 20260502053711 | 61 | 26 | 6.0 | 16.0 | 0.00 | 0.00 | 0.00 | 79 | 1020.1 |
| 20260502052714 | 61 | 5 | 7.0 | 14.0 | 0.00 | 0.00 | 0.00 | 81 | 1019.9 |
| 20260502052218 | 60 | 30 | 8.0 | 14.0 | 0.00 | 0.00 | 0.00 | 81 | 1019.8 |
| 20260502051217 | 61 | 15 | 8.0 | 14.0 | 0.00 | 0.00 | 0.00 | 80 | 1019.7 |
| 20260502050717 | 61 | 33 | 8.0 | 14.0 | 0.00 | 0.00 | 0.00 | 80 | 1019.7 |
| 20260502050212 | 61 | 56 | 8.0 | 14.0 | 0.00 | 0.00 | 0.00 | 80 | 1019.6 |
| 20260502045712 | 61 | 49 | 8.0 | 14.0 | 0.00 | 0.00 | 0.00 | 80 | 1019.6 |
| 20260502045207 | 61 | 29 | 7.0 | 14.0 | 0.00 | 0.00 | 0.00 | 81 | 1019.6 |
| 20260502043709 | 61 | 26 | 7.0 | 12.0 | 0.00 | 0.00 | 0.00 | 81 | 1019.6 |
| 20260502043206 | 61 | 33 | 7.0 | 12.0 | 0.00 | 0.00 | 0.00 | 80 | 1019.5 |
| 20260502042710 | 61 | 50 | 6.0 | 10.0 | 0.00 | 0.00 | 0.00 | 79 | 1019.6 |
| 20260502042207 | 61 | 9 | 5.0 | 10.0 | 0.00 | 0.00 | 0.00 | 79 | 1019.6 |
| 20260502041717 | 61 | 357 | 6.0 | 12.0 | 0.00 | 0.00 | 0.00 | 80 | 1019.7 |
| 20260502040708 | 61 | 16 | 6.0 | 12.0 | 0.00 | 0.00 | 0.00 | 79 | 1019.7 |
| 20260502040206 | 61 | 43 | 7.0 | 12.0 | 0.00 | 0.00 | 0.00 | 79 | 1019.8 |
| 20260502035714 | 61 | 56 | 7.0 | 11.0 | 0.00 | 0.00 | 0.00 | 79 | 1019.9 |
| 20260502035212 | 61 | 39 | 6.0 | 14.0 | 0.00 | 0.00 | 0.00 | 79 | 1019.9 |
| 20260502034708 | 61 | 77 | 6.0 | 14.0 | 0.00 | 0.00 | 0.00 | 80 | 1019.9 |
| 20260502034209 | 60 | 26 | 8.0 | 14.0 | 0.00 | 0.00 | 0.00 | 80 | 1019.9 |
| 20260502033713 | 60 | 77 | 6.0 | 12.0 | 0.00 | 0.00 | 0.00 | 80 | 1020.0 |
| 20260502033205 | 60 | 64 | 4.0 | 12.0 | 0.00 | 0.00 | 0.00 | 80 | 1020.1 |
| 20260502031210 | 60 | 35 | 4.0 | 8.0 | 0.00 | 0.00 | 0.00 | 80 | 1020.1 |
| 20260502030710 | 60 | 43 | 5.0 | 8.0 | 0.00 | 0.00 | 0.00 | 79 | 1020.4 |
| 20260502025711 | 60 | 67 | 4.0 | 11.0 | 0.00 | 0.00 | 0.00 | 80 | 1020.2 |
| 20260502024710 | 60 | 53 | 4.0 | 15.0 | 0.00 | 0.00 | 0.00 | 80 | 1020.2 |
| 20260502024214 | 60 | 42 | 6.0 | 16.0 | 0.00 | 0.00 | 0.00 | 79 | 1020.2 |
| 20260502023716 | 61 | 22 | 7.0 | 17.0 | 0.00 | 0.00 | 0.00 | 80 | 1020.2 |
| 20260502023212 | 60 | 39 | 8.0 | 17.0 | 0.00 | 0.00 | 0.00 | 80 | 1020.1 |
| 20260502022714 | 60 | 23 | 8.0 | 15.0 | 0.00 | 0.00 | 0.00 | 80 | 1019.9 |
| 20260502022213 | 60 | 53 | 7.0 | 15.0 | 0.00 | 0.00 | 0.00 | 80 | 1019.9 |
| 20260502021716 | 60 | 49 | 8.0 | 13.0 | 0.00 | 0.00 | 0.00 | 80 | 1020.1 |
| 20260502021208 | 60 | 37 | 7.0 | 13.0 | 0.00 | 0.00 | 0.00 | 81 | 1020.2 |
| 20260502020716 | 60 | 47 | 7.0 | 12.0 | 0.00 | 0.00 | 0.00 | 80 | 1020.3 |
| 20260502020212 | 60 | 46 | 6.0 | 12.0 | 0.00 | 0.00 | 0.00 | 80 | 1020.5 |
| 20260502015705 | 60 | 32 | 6.0 | 12.0 | 0.00 | 0.00 | 0.00 | 80 | 1020.5 |
| 20260502015215 | 60 | 49 | 7.0 | 16.0 | 0.00 | 0.00 | 0.00 | 80 | 1020.6 |
| 20260502014215 | 60 | 54 | 7.0 | 15.0 | 0.00 | 0.00 | 0.00 | 81 | 1020.7 |
| 20260502013707 | 60 | 68 | 7.0 | 15.0 | 0.00 | 0.00 | 0.00 | 81 | 1020.7 |
| 20260502013206 | 60 | 30 | 7.0 | 11.0 | 0.00 | 0.00 | 0.00 | 81 | 1020.8 |
| 20260502012709 | 60 | 47 | 6.0 | 16.0 | 0.00 | 0.00 | 0.00 | 81 | 1020.9 |
| 20260502012245 | 60 | 53 | 7.0 | 16.0 | 0.00 | 0.00 | 0.00 | 81 | 1021.0 |
| 20260502011707 | 60 | 8 | 8.0 | 14.0 | 0.00 | 0.00 | 0.00 | 80 | 1021.0 |
| 20260502011214 | 60 | 42 | 8.0 | 14.0 | 0.00 | 0.00 | 0.00 | 79 | 1021.1 |
| 20260502010714 | 60 | 64 | 7.0 | 10.0 | 0.00 | 0.00 | 0.00 | 79 | 1021.1 |
| 20260502010207 | 60 | 46 | 6.0 | 13.0 | 0.00 | 0.00 | 0.00 | 79 | 1021.2 |
| 20260502005713 | 60 | 28 | 7.0 | 15.0 | 0.00 | 0.00 | 0.00 | 79 | 1021.1 |
| 20260502004710 | 60 | 8 | 8.0 | 14.0 | 0.00 | 0.00 | 0.00 | 79 | 1021.4 |
| 20260502004208 | 60 | 57 | 8.0 | 14.0 | 0.00 | 0.00 | 0.00 | 78 | 1021.4 |
| 20260502003218 | 60 | 54 | 7.0 | 17.0 | 0.00 | 0.00 | 0.00 | 78 | 1021.4 |
| 20260502002207 | 60 | 61 | 7.0 | 13.0 | 0.00 | 0.00 | 0.00 | 77 | 1021.6 |
| 20260502001718 | 60 | 43 | 7.0 | 13.0 | 0.00 | 0.00 | 0.00 | 77 | 1021.8 |
| 20260502001209 | 60 | 7 | 7.0 | 14.0 | 0.00 | 0.00 | 0.00 | 77 | 1021.7 |
| 20260502000205 | 60 | 46 | 8.0 | 15.0 | 0.00 | 0.00 | 0.00 | 76 | 1021.9 |
| 20260501235206 | 60 | 49 | 7.0 | 14.0 | 0.00 | 0.00 | 0.00 | 76 | 1022.0 |
| 20260501234716 | 60 | 57 | 7.0 | 14.0 | 0.00 | 0.00 | 0.00 | 76 | 1021.9 |